TimeCDT,TemperatureF,Dew PointF,Humidity,Sea Level PressureIn,VisibilityMPH,Wind Direction,Wind SpeedMPH,Gust SpeedMPH,PrecipitationIn,Events,Conditions,WindDirDegrees,DateUTC
12:14 AM,26.6,19.4,74,30.24,10.0,NW,8.1,-,N/A,,Clear,320,2013-04-23 05:14:00
12:34 AM,26.6,19.4,74,30.24,10.0,NW,6.9,-,N/A,,Clear,320,2013-04-23 05:34:00
12:55 AM,26.6,19.4,74,30.24,10.0,NW,4.6,-,N/A,,Clear,320,2013-04-23 05:55:00
1:14 AM,24.8,17.6,74,30.24,10.0,NNW,4.6,-,N/A,,Clear,330,2013-04-23 06:14:00
1:35 AM,24.8,17.6,74,30.23,10.0,NW,5.8,-,N/A,,Clear,310,2013-04-23 06:35:00
1:55 AM,24.8,17.6,74,30.23,10.0,NW,5.8,-,N/A,,Clear,320,2013-04-23 06:55:00
2:14 AM,24.8,15.8,69,30.23,10.0,NW,4.6,-,N/A,,Clear,320,2013-04-23 07:14:00
2:35 AM,23.0,15.8,74,30.22,10.0,NW,4.6,-,N/A,,Clear,320,2013-04-23 07:35:00
2:55 AM,21.2,15.8,80,30.22,10.0,WNW,3.5,-,N/A,,Clear,300,2013-04-23 07:55:00
3:14 AM,21.2,15.8,80,30.22,10.0,WNW,3.5,-,N/A,,Clear,300,2013-04-23 08:14:00
3:35 AM,19.4,15.8,86,30.21,10.0,Calm,Calm,-,N/A,,Clear,0,2013-04-23 08:35:00
3:55 AM,17.6,14.0,86,30.21,10.0,West,3.5,-,N/A,,Clear,260,2013-04-23 08:55:00
4:14 AM,17.6,14.0,86,30.21,10.0,WSW,4.6,-,N/A,,Clear,250,2013-04-23 09:14:00
4:35 AM,17.6,14.0,86,30.21,10.0,Calm,Calm,-,N/A,,Clear,0,2013-04-23 09:35:00
5:14 AM,15.8,12.2,86,30.20,10.0,WSW,4.6,-,N/A,,Clear,240,2013-04-23 10:14:00
5:35 AM,15.8,12.2,86,30.19,10.0,WSW,3.5,-,N/A,,Clear,240,2013-04-23 10:35:00
5:55 AM,14.0,12.2,93,30.18,10.0,West,3.5,-,N/A,,Clear,260,2013-04-23 10:55:00
6:14 AM,14.0,12.2,93,30.18,10.0,WSW,3.5,-,N/A,,Clear,250,2013-04-23 11:14:00
6:35 AM,14.0,12.2,93,30.18,10.0,WSW,4.6,-,N/A,,Clear,240,2013-04-23 11:35:00
6:55 AM,15.8,12.2,86,30.18,10.0,West,5.8,-,N/A,,Clear,260,2013-04-23 11:55:00
7:14 AM,15.8,12.2,86,30.18,10.0,WSW,3.5,-,N/A,,Clear,250,2013-04-23 12:14:00
7:35 AM,17.6,14.0,86,30.18,10.0,WSW,5.8,-,N/A,,Clear,250,2013-04-23 12:35:00
7:55 AM,17.6,14.0,86,30.19,10.0,WSW,4.6,-,N/A,,Clear,240,2013-04-23 12:55:00
8:14 AM,19.4,15.8,86,30.19,10.0,WSW,3.5,-,N/A,,Clear,250,2013-04-23 13:14:00
8:35 AM,19.4,15.8,86,30.19,10.0,Calm,Calm,-,N/A,,Clear,0,2013-04-23 13:35:00
8:54 AM,21.2,17.6,86,30.19,10.0,WSW,4.6,-,N/A,,Clear,240,2013-04-23 13:54:00
9:14 AM,24.8,17.6,74,30.18,10.0,WSW,3.5,-,N/A,,Clear,240,2013-04-23 14:14:00
9:35 AM,26.6,19.4,74,30.17,10.0,WSW,5.8,-,N/A,,Clear,240,2013-04-23 14:35:00
9:54 AM,28.4,21.2,74,30.17,10.0,SW,6.9,-,N/A,,Clear,230,2013-04-23 14:54:00
10:14 AM,28.4,21.2,74,30.16,10.0,SW,6.9,-,N/A,,Clear,230,2013-04-23 15:14:00
10:35 AM,30.2,23.0,75,30.16,10.0,WSW,6.9,-,N/A,,Clear,250,2013-04-23 15:35:00
10:54 AM,30.2,23.0,75,30.15,10.0,WSW,8.1,-,N/A,,Clear,240,2013-04-23 15:54:00
11:14 AM,32.0,21.2,64,30.15,10.0,WSW,9.2,-,N/A,,Clear,240,2013-04-23 16:14:00
11:35 AM,32.0,21.2,64,30.14,10.0,SW,9.2,-,N/A,,Clear,230,2013-04-23 16:35:00
11:54 AM,33.8,19.4,56,30.13,10.0,SW,9.2,-,N/A,,Clear,220,2013-04-23 16:54:00
12:14 PM,33.8,21.2,60,30.13,10.0,SW,9.2,-,N/A,,Clear,230,2013-04-23 17:14:00
12:35 PM,33.8,21.2,60,30.13,10.0,SW,9.2,-,N/A,,Clear,230,2013-04-23 17:35:00
12:54 PM,33.8,19.4,56,30.12,10.0,SW,9.2,-,N/A,,Clear,230,2013-04-23 17:54:00
1:14 PM,33.8,19.4,56,30.11,10.0,SW,9.2,-,N/A,,Clear,230,2013-04-23 18:14:00
1:35 PM,35.6,19.4,52,30.10,10.0,SW,9.2,-,N/A,,Clear,220,2013-04-23 18:35:00
1:54 PM,35.6,21.2,56,30.09,10.0,WSW,8.1,-,N/A,,Clear,240,2013-04-23 18:54:00
2:14 PM,35.6,21.2,56,30.09,10.0,WSW,8.1,-,N/A,,Clear,240,2013-04-23 19:14:00
2:35 PM,35.6,21.2,56,30.08,10.0,SW,9.2,-,N/A,,Clear,230,2013-04-23 19:35:00
2:54 PM,35.6,23.0,60,30.08,10.0,SW,5.8,-,N/A,,Clear,230,2013-04-23 19:54:00
3:14 PM,35.6,23.0,60,30.07,10.0,SW,6.9,-,N/A,,Clear,230,2013-04-23 20:14:00
3:35 PM,35.6,23.0,60,30.06,10.0,SW,9.2,-,N/A,,Clear,220,2013-04-23 20:35:00
3:54 PM,35.6,24.8,65,30.06,10.0,SW,10.4,-,N/A,,Clear,230,2013-04-23 20:54:00
4:14 PM,35.6,24.8,65,30.05,10.0,SW,10.4,-,N/A,,Clear,220,2013-04-23 21:14:00
4:35 PM,35.6,24.8,65,30.05,10.0,WSW,9.2,-,N/A,,Clear,240,2013-04-23 21:35:00
4:54 PM,35.6,24.8,65,30.04,10.0,SW,8.1,-,N/A,,Clear,230,2013-04-23 21:54:00
5:14 PM,35.6,24.8,65,30.04,10.0,SW,9.2,-,N/A,,Clear,220,2013-04-23 22:14:00
5:35 PM,35.6,24.8,65,30.03,10.0,SW,9.2,-,N/A,,Clear,220,2013-04-23 22:35:00
5:54 PM,35.6,24.8,65,30.03,10.0,SW,10.4,-,N/A,,Clear,220,2013-04-23 22:54:00
6:14 PM,35.6,24.8,65,30.03,10.0,SW,8.1,-,N/A,,Clear,220,2013-04-23 23:14:00
6:35 PM,35.6,24.8,65,30.02,10.0,SW,9.2,-,N/A,,Clear,230,2013-04-23 23:35:00
6:54 PM,33.8,24.8,70,30.02,10.0,SW,10.4,-,N/A,,Clear,230,2013-04-23 23:54:00
7:14 PM,33.8,24.8,70,30.02,10.0,SW,9.2,-,N/A,,Clear,220,2013-04-24 00:14:00
7:35 PM,32.0,24.8,75,30.02,10.0,SW,9.2,-,N/A,,Clear,220,2013-04-24 00:35:00
7:54 PM,30.2,24.8,80,30.02,10.0,SW,9.2,-,N/A,,Clear,230,2013-04-24 00:54:00
8:14 PM,30.2,23.0,75,30.02,10.0,SW,10.4,-,N/A,,Clear,220,2013-04-24 01:14:00
8:35 PM,28.4,23.0,80,30.02,10.0,SW,8.1,-,N/A,,Clear,230,2013-04-24 01:35:00
8:54 PM,28.4,21.2,74,30.02,10.0,SW,8.1,-,N/A,,Clear,230,2013-04-24 01:54:00
9:14 PM,26.6,21.2,80,30.02,10.0,SW,8.1,-,N/A,,Clear,230,2013-04-24 02:14:00
9:35 PM,26.6,21.2,80,30.01,10.0,SW,8.1,-,N/A,,Clear,230,2013-04-24 02:35:00
9:54 PM,28.4,21.2,74,30.01,10.0,SW,8.1,-,N/A,,Clear,220,2013-04-24 02:54:00
10:14 PM,28.4,21.2,74,30.01,10.0,SW,6.9,-,N/A,,Clear,220,2013-04-24 03:14:00
10:35 PM,28.4,21.2,74,30.00,10.0,SW,9.2,-,N/A,,Clear,230,2013-04-24 03:35:00
10:54 PM,28.4,21.2,74,30.00,10.0,SW,9.2,-,N/A,,Clear,220,2013-04-24 03:54:00
11:15 PM,28.4,21.2,74,29.99,10.0,SSW,8.1,-,N/A,,Clear,210,2013-04-24 04:15:00
11:35 PM,28.4,21.2,74,29.99,10.0,SSW,6.9,-,N/A,,Scattered Clouds,210,2013-04-24 04:35:00
11:54 PM,28.4,21.2,74,29.98,10.0,SW,6.9,-,N/A,,Scattered Clouds,220,2013-04-24 04:54:00